Skip Page Navigation
NASA JPL Caltech
NASA Logo - Jet Propulsion Laboratory + View the NASA Portal
+ Near-Earth Object (NEO) Program
Search JPL
JPL Home Earth Solar System Stars & Galaxies Technology
JPL Solar System Dynamics
BODIES ORBITS EPHEMERIDES TOOLS PHYSICAL DATA DISCOVERY FAQ SITE MAP
JPL Small-Body Database Browser
Search: [ help ]  
202778 Dmytria (2007 UN3)
Classification: Main-belt Asteroid          SPK-ID: 2202778
Ephemeris | Orbit Diagram | Orbital Elements | Physical Parameters | Discovery Circumstances | Close-Approach Data ]

[ show orbit diagram ]
Orbital Elements at Epoch 2457000.5 (2014-Dec-09.0) TDB
Reference: JPL 8 (heliocentric ecliptic J2000)
 Element Value Uncertainty (1-sigma)   Units 
e .122845239193758 7.7098e-08  
a 3.029810175548064 5.7301e-08 AU
q 2.65761241982118 2.3465e-07 AU
i 9.577242330923294 1.3112e-05 deg
node 331.3037268017202 5.0861e-05 deg
peri 90.26743746836608 0.00010228 deg
M 102.5554228895033 7.7125e-05 deg
tp 2456451.746016827531
(2013-Jun-08.24601683)
0.0004129 JED
period 1926.289496704016
5.27
5.4646e-05
1.496e-07
d
yr
n .1868877967802759 5.3017e-09 deg/d
Q 3.402007931274947 6.434e-08 AU
  Orbit Determination Parameters
   # obs. used (total)      205  
   data-arc span      6770 days (18.54 yr)  
   first obs. used      1996-09-12  
   last obs. used      2015-03-27  
   planetary ephem.      DE431  
   SB-pert. ephem.      SB431-BIG16  
   condition code      0  
   fit RMS      .68879  
   data source      ORB  
   producer      Otto Matic  
   solution date      2015-Apr-07 23:15:11  

Additional Information
 Earth MOID = 1.69184 AU 
 T_jup = 3.211 
[ show covariance matrix ]

Ephemeris | Orbit Diagram | Orbital Elements | Physical Parameters | Discovery Circumstances | Close-Approach Data ]

Physical Parameter Table
Parameter Symbol Value Units Sigma Reference Notes
absolute magnitude H 15.5 mag n/a MPO287844  

202778 Dmytria           Discovered 2007 Oct. 16 at Andrushivka.
Dmytro Yaroslavovych Yatskiv (1963-2004) was a laser physicist and observer at Kyiv satellite laser ranging station.
NOTE: some special characters may not display properly (any characters within {} are an attempt to place the proper accent above a character)
Reference: 20090607/MPCPages.arcLast Updated: 2009-06-08

[ show close-approach data ]
Alternate Designations
 2007 UN3 = 2004 FV160 
Ephemeris | Orbit Diagram | Orbital Elements | Physical Parameters | Discovery Circumstances | Close-Approach Data ]
ABOUT SSD CREDITS/AWARDS PRIVACY/COPYRIGHT GLOSSARY LINKS
FirstGov 2015-Apr-25 11:00 UT
(server date/time)  
NASA Home Page
Site Manager:   Ryan S. Park
Webmaster  Alan B. Chamberlin